| time (UTC) | temp C | wind direction | speed KPH | gust KPH | rain 1hr cm | rain 24hr cm | rain mn cm | humidity % | barometer mb |
| 20260509201517 | 18 | 73 | 0.0 | 1.6 | 0.00 | 0.00 | 0.00 | 56 | 1006.8 |
| 20260509201015 | 18 | 73 | 0.0 | 0.0 | 0.00 | 0.00 | 0.00 | 54 | 1006.8 |
| 20260509200510 | 18 | 98 | 1.6 | 1.6 | 0.00 | 0.00 | 0.00 | 55 | 1006.6 |
| 20260509200006 | 19 | 66 | 1.6 | 3.2 | 0.00 | 0.00 | 0.00 | 52 | 1006.5 |
| 20260509195501 | 20 | 77 | 0.0 | 0.0 | 0.00 | 0.00 | 0.00 | 51 | 1006.6 |
| 20260509194956 | 20 | 21 | 0.0 | 0.0 | 0.00 | 0.00 | 0.00 | 52 | 1006.6 |
| 20260509194452 | 19 | 20 | 0.0 | 0.0 | 0.00 | 0.00 | 0.00 | 56 | 1006.4 |
| 20260509193949 | 20 | 287 | 1.6 | 1.6 | 0.00 | 0.00 | 0.00 | 51 | 1006.7 |
| 20260509193449 | 20 | 65 | 0.0 | 1.6 | 0.00 | 0.00 | 0.00 | 49 | 1006.8 |
| 20260509192945 | 20 | 335 | 3.2 | 3.2 | 0.00 | 0.00 | 0.00 | 49 | 1006.7 |
| 20260509192442 | 20 | 92 | 1.6 | 3.2 | 0.00 | 0.00 | 0.00 | 48 | 1006.9 |
| 20260509191937 | 21 | 319 | 4.8 | 4.8 | 0.00 | 0.00 | 0.00 | 46 | 1006.8 |
| 20260509191432 | 20 | 294 | 0.0 | 1.6 | 0.00 | 0.00 | 0.00 | 49 | 1006.9 |
| 20260509190928 | 21 | 49 | 1.6 | 1.6 | 0.00 | 0.00 | 0.00 | 49 | 1006.8 |
| 20260509190426 | 22 | 292 | 1.6 | 1.6 | 0.00 | 0.00 | 0.00 | 44 | 1006.7 |
| 20260509185923 | 22 | 64 | 1.6 | 1.6 | 0.00 | 0.00 | 0.00 | 48 | 1006.7 |
| 20260509185420 | 21 | 343 | 3.2 | 3.2 | 0.00 | 0.00 | 0.00 | 48 | 1006.8 |
| 20260509184917 | 21 | 323 | 3.2 | 3.2 | 0.00 | 0.00 | 0.00 | 44 | 1006.7 |
| 20260509184415 | 20 | 66 | 3.2 | 4.8 | 0.00 | 0.00 | 0.00 | 50 | 1006.7 |
| 20260509183911 | 20 | 303 | 3.2 | 3.2 | 0.00 | 0.00 | 0.00 | 49 | 1007.1 |
| 20260509183405 | 20 | 70 | 3.2 | 4.8 | 0.00 | 0.00 | 0.00 | 51 | 1006.8 |
| 20260509182902 | 20 | 52 | 1.6 | 1.6 | 0.00 | 0.00 | 0.00 | 50 | 1006.9 |
| 20260509182359 | 21 | 297 | 6.4 | 6.4 | 0.00 | 0.00 | 0.00 | 49 | 1006.9 |
| 20260509181856 | 20 | 250 | 1.6 | 1.6 | 0.00 | 0.00 | 0.00 | 49 | 1007.2 |
| 20260509181353 | 20 | 42 | 1.6 | 1.6 | 0.00 | 0.00 | 0.00 | 50 | 1007.7 |
| 20260509180851 | 20 | 23 | 6.4 | 9.7 | 0.00 | 0.00 | 0.00 | 49 | 1007.6 |
| 20260509180346 | 20 | 9 | 6.4 | 6.4 | 0.00 | 0.00 | 0.00 | 48 | 1007.6 |
| 20260509175844 | 20 | 6 | 0.0 | 0.0 | 0.00 | 0.00 | 0.00 | 48 | 1007.8 |
| 20260509175340 | 20 | 305 | 0.0 | 0.0 | 0.00 | 0.00 | 0.00 | 50 | 1007.9 |
| 20260509174835 | 18 | 73 | 1.6 | 1.6 | 0.00 | 0.00 | 0.00 | 57 | 1007.6 |
| 20260509174332 | 18 | 128 | 0.0 | 1.6 | 0.00 | 0.00 | 0.00 | 57 | 1007.8 |
| 20260509173828 | 18 | 147 | 3.2 | 3.2 | 0.00 | 0.00 | 0.00 | 57 | 1007.4 |
| 20260509173323 | 17 | 339 | 1.6 | 3.2 | 0.00 | 0.00 | 0.00 | 58 | 1007.8 |
| 20260509172820 | 17 | 51 | 1.6 | 1.6 | 0.00 | 0.00 | 0.00 | 61 | 1007.9 |
| 20260509172316 | 17 | 45 | 1.6 | 1.6 | 0.00 | 0.00 | 0.00 | 66 | 1008.0 |
| 20260509171812 | 17 | 358 | 1.6 | 3.2 | 0.00 | 0.00 | 0.00 | 62 | 1008.3 |
| 20260509171308 | 16 | 23 | 4.8 | 4.8 | 0.00 | 0.00 | 0.00 | 66 | 1008.4 |
| 20260509170805 | 15 | 79 | 4.8 | 4.8 | 0.00 | 0.00 | 0.00 | 67 | 1008.4 |
| 20260509170301 | 16 | 42 | 1.6 | 3.2 | 0.00 | 0.00 | 0.00 | 68 | 1008.5 |
| 20260509165800 | 16 | 62 | 6.4 | 6.4 | 0.00 | 0.00 | 0.00 | 68 | 1008.5 |
| 20260509165255 | 16 | 94 | 1.6 | 3.2 | 0.00 | 0.00 | 0.00 | 69 | 1008.5 |
| 20260509164751 | 16 | 60 | 3.2 | 3.2 | 0.00 | 0.00 | 0.00 | 68 | 1008.7 |
| 20260509164242 | 15 | 55 | 3.2 | 3.2 | 0.00 | 0.00 | 0.00 | 68 | 1008.6 |
| 20260509163744 | 15 | 41 | 3.2 | 3.2 | 0.00 | 0.00 | 0.00 | 67 | 1008.6 |
| 20260509163235 | 15 | 38 | 3.2 | 3.2 | 0.00 | 0.00 | 0.00 | 67 | 1008.8 |
| 20260509162734 | 15 | 21 | 1.6 | 1.6 | 0.00 | 0.00 | 0.00 | 67 | 1008.9 |
| 20260509162228 | 15 | 5 | 0.0 | 0.0 | 0.00 | 0.00 | 0.00 | 67 | 1008.9 |
| 20260509161724 | 15 | 76 | 0.0 | 0.0 | 0.00 | 0.00 | 0.00 | 67 | 1008.9 |
| 20260509161220 | 15 | 121 | 0.0 | 0.0 | 0.00 | 0.00 | 0.00 | 66 | 1008.8 |
| 20260509160715 | 16 | 69 | 3.2 | 3.2 | 0.00 | 0.00 | 0.00 | 68 | 1008.5 |
| 20260509160212 | 15 | 88 | 1.6 | 1.6 | 0.00 | 0.00 | 0.00 | 66 | 1008.7 |
| 20260509155707 | 16 | 70 | 1.6 | 3.2 | 0.00 | 0.00 | 0.00 | 65 | 1008.5 |
| 20260509155204 | 16 | 84 | 0.0 | 1.6 | 0.00 | 0.00 | 0.00 | 63 | 1008.3 |
| 20260509154700 | 16 | 86 | 4.8 | 6.4 | 0.00 | 0.00 | 0.00 | 63 | 1008.5 |
| 20260509154157 | 16 | 101 | 0.0 | 0.0 | 0.00 | 0.00 | 0.00 | 64 | 1008.5 |
| 20260509153654 | 16 | 102 | 1.6 | 3.2 | 0.00 | 0.00 | 0.00 | 64 | 1008.3 |
| 20260509153151 | 16 | 259 | 3.2 | 3.2 | 0.00 | 0.00 | 0.00 | 63 | 1008.4 |
| 20260509152646 | 17 | 67 | 0.0 | 0.0 | 0.00 | 0.00 | 0.00 | 59 | 1008.5 |
| 20260509152144 | 16 | 67 | 0.0 | 0.0 | 0.00 | 0.00 | 0.00 | 61 | 1008.6 |
| 20260509151640 | 17 | 36 | 3.2 | 3.2 | 0.00 | 0.00 | 0.00 | 59 | 1008.5 |
| 20260509151137 | 16 | 81 | 1.6 | 1.6 | 0.00 | 0.00 | 0.00 | 63 | 1008.4 |
| 20260509150636 | 16 | 137 | 3.2 | 3.2 | 0.00 | 0.00 | 0.00 | 62 | 1008.6 |
| 20260509150133 | 16 | 55 | 1.6 | 1.6 | 0.00 | 0.00 | 0.00 | 61 | 1008.6 |
| 20260509145629 | 16 | 20 | 0.0 | 0.0 | 0.00 | 0.00 | 0.00 | 62 | 1008.7 |
| 20260509145125 | 15 | 282 | 3.2 | 3.2 | 0.00 | 0.00 | 0.00 | 63 | 1008.7 |
| 20260509144621 | 15 | 70 | 0.0 | 1.6 | 0.00 | 0.00 | 0.00 | 61 | 1008.5 |
| 20260509144118 | 15 | 69 | 1.6 | 1.6 | 0.00 | 0.00 | 0.00 | 60 | 1008.6 |
| 20260509143616 | 15 | 95 | 3.2 | 3.2 | 0.00 | 0.00 | 0.00 | 61 | 1008.4 |
| 20260509143113 | 15 | 58 | 0.0 | 1.6 | 0.00 | 0.00 | 0.00 | 60 | 1008.5 |
| 20260509142608 | 15 | 62 | 0.0 | 0.0 | 0.00 | 0.00 | 0.00 | 60 | 1008.8 |
| 20260509142104 | 15 | 51 | 0.0 | 0.0 | 0.00 | 0.00 | 0.00 | 62 | 1008.9 |
| 20260509141601 | 15 | 51 | 3.2 | 3.2 | 0.00 | 0.00 | 0.00 | 61 | 1008.9 |
| 20260509141057 | 15 | 86 | 3.2 | 3.2 | 0.00 | 0.00 | 0.00 | 62 | 1008.9 |
| 20260509140555 | 15 | 84 | 1.6 | 1.6 | 0.00 | 0.00 | 0.00 | 63 | 1009.0 |
| 20260509140052 | 15 | 83 | 0.0 | 0.0 | 0.00 | 0.00 | 0.00 | 62 | 1008.9 |
| 20260509135549 | 15 | 84 | 0.0 | 0.0 | 0.00 | 0.00 | 0.00 | 62 | 1008.9 |
| 20260509135047 | 14 | 85 | 0.0 | 0.0 | 0.00 | 0.00 | 0.00 | 61 | 1009.0 |
| 20260509134544 | 13 | 85 | 0.0 | 0.0 | 0.00 | 0.00 | 0.00 | 64 | 1009.1 |
| 20260509134041 | 13 | 84 | 0.0 | 0.0 | 0.00 | 0.00 | 0.00 | 65 | 1009.1 |
| 20260509133538 | 13 | 84 | 0.0 | 0.0 | 0.00 | 0.00 | 0.00 | 68 | 1009.1 |
| 20260509133036 | 13 | 85 | 1.6 | 1.6 | 0.00 | 0.00 | 0.00 | 67 | 1009.1 |
| 20260509132534 | 13 | 85 | 0.0 | 0.0 | 0.00 | 0.00 | 0.00 | 64 | 1008.8 |
| 20260509132032 | 13 | 85 | 0.0 | 0.0 | 0.00 | 0.00 | 0.00 | 65 | 1008.9 |
| 20260509131527 | 13 | 85 | 3.2 | 3.2 | 0.00 | 0.00 | 0.00 | 65 | 1009.1 |
| 20260509131024 | 13 | 85 | 0.0 | 1.6 | 0.00 | 0.00 | 0.00 | 67 | 1009.1 |
| 20260509130520 | 13 | 87 | 1.6 | 1.6 | 0.00 | 0.00 | 0.00 | 67 | 1008.9 |
| 20260509130017 | 13 | 86 | 0.0 | 1.6 | 0.00 | 0.00 | 0.00 | 70 | 1008.9 |
| 20260509125514 | 12 | 86 | 0.0 | 0.0 | 0.00 | 0.00 | 0.00 | 72 | 1008.9 |
| 20260509125010 | 12 | 86 | 1.6 | 1.6 | 0.00 | 0.00 | 0.00 | 78 | 1008.9 |
| 20260509124507 | 12 | 87 | 0.0 | 0.0 | 0.00 | 0.00 | 0.00 | 80 | 1008.9 |
| 20260509124004 | 12 | 87 | 0.0 | 0.0 | 0.00 | 0.00 | 0.00 | 81 | 1008.9 |
| 20260509123502 | 12 | 87 | 0.0 | 0.0 | 0.00 | 0.00 | 0.00 | 81 | 1009.0 |
| 20260509122957 | 12 | 87 | 0.0 | 0.0 | 0.00 | 0.00 | 0.00 | 81 | 1009.3 |
| 20260509122454 | 12 | 87 | 0.0 | 0.0 | 0.00 | 0.00 | 0.00 | 79 | 1009.2 |
| 20260509121951 | 12 | 87 | 0.0 | 0.0 | 0.00 | 0.00 | 0.00 | 79 | 1009.1 |
| 20260509121448 | 12 | 87 | 0.0 | 0.0 | 0.00 | 0.00 | 0.00 | 80 | 1009.0 |
| 20260509120946 | 12 | 87 | 0.0 | 0.0 | 0.00 | 0.00 | 0.00 | 80 | 1009.1 |
| 20260509120444 | 12 | 87 | 0.0 | 0.0 | 0.00 | 0.00 | 0.00 | 80 | 1009.0 |
| 20260509115942 | 11 | 87 | 0.0 | 0.0 | 0.00 | 0.00 | 0.00 | 78 | 1009.0 |
| 20260509115438 | 11 | 87 | 0.0 | 0.0 | 0.00 | 0.00 | 0.00 | 80 | 1008.8 |
| 20260509114936 | 11 | 87 | 0.0 | 0.0 | 0.00 | 0.00 | 0.00 | 78 | 1009.0 |
| 20260509114434 | 11 | 87 | 0.0 | 0.0 | 0.00 | 0.00 | 0.00 | 80 | 1009.0 |
| 20260509113934 | 11 | 87 | 0.0 | 0.0 | 0.00 | 0.00 | 0.00 | 80 | 1008.9 |
| 20260509113430 | 11 | 87 | 0.0 | 0.0 | 0.00 | 0.00 | 0.00 | 79 | 1009.0 |
| 20260509112927 | 11 | 87 | 0.0 | 0.0 | 0.00 | 0.00 | 0.00 | 78 | 1008.9 |
| 20260509112425 | 11 | 87 | 0.0 | 0.0 | 0.00 | 0.00 | 0.00 | 78 | 1008.8 |
| 20260509111921 | 11 | 87 | 0.0 | 0.0 | 0.00 | 0.00 | 0.00 | 76 | 1008.8 |
| 20260509111419 | 11 | 87 | 0.0 | 0.0 | 0.00 | 0.00 | 0.00 | 80 | 1008.8 |
| 20260509110916 | 11 | 87 | 0.0 | 0.0 | 0.00 | 0.00 | 0.00 | 75 | 1008.9 |
| 20260509110412 | 11 | 87 | 0.0 | 0.0 | 0.00 | 0.00 | 0.00 | 76 | 1008.8 |
| 20260509105910 | 11 | 87 | 0.0 | 1.6 | 0.00 | 0.00 | 0.00 | 78 | 1008.7 |
| 20260509105408 | 11 | 87 | 1.6 | 1.6 | 0.00 | 0.00 | 0.00 | 78 | 1008.7 |
| 20260509104905 | 11 | 87 | 0.0 | 0.0 | 0.00 | 0.00 | 0.00 | 78 | 1008.7 |
| 20260509104402 | 11 | 87 | 0.0 | 0.0 | 0.00 | 0.00 | 0.00 | 77 | 1008.6 |
| 20260509103859 | 10 | 87 | 0.0 | 0.0 | 0.00 | 0.00 | 0.00 | 78 | 1008.6 |
| 20260509103356 | 10 | 87 | 0.0 | 0.0 | 0.00 | 0.00 | 0.00 | 79 | 1008.4 |
| 20260509102855 | 10 | 87 | 0.0 | 0.0 | 0.00 | 0.00 | 0.00 | 79 | 1008.4 |
| 20260509102352 | 10 | 87 | 0.0 | 0.0 | 0.00 | 0.00 | 0.00 | 76 | 1008.1 |
| 20260509101847 | 10 | 87 | 0.0 | 0.0 | 0.00 | 0.00 | 0.00 | 77 | 1008.3 |
| 20260509101344 | 10 | 87 | 0.0 | 0.0 | 0.00 | 0.00 | 0.00 | 77 | 1008.3 |
| 20260509100842 | 11 | 87 | 0.0 | 0.0 | 0.00 | 0.00 | 0.00 | 76 | 1008.2 |
| 20260509100339 | 11 | 87 | 0.0 | 0.0 | 0.00 | 0.00 | 0.00 | 75 | 1008.2 |
| 20260509095835 | 11 | 87 | 0.0 | 0.0 | 0.00 | 0.00 | 0.00 | 75 | 1008.4 |
| 20260509095332 | 11 | 87 | 0.0 | 0.0 | 0.00 | 0.00 | 0.00 | 75 | 1008.2 |
| 20260509094830 | 11 | 87 | 0.0 | 0.0 | 0.00 | 0.00 | 0.00 | 76 | 1008.2 |
| 20260509094326 | 11 | 87 | 0.0 | 0.0 | 0.00 | 0.00 | 0.00 | 75 | 1008.3 |
| 20260509093824 | 11 | 87 | 0.0 | 0.0 | 0.00 | 0.00 | 0.00 | 76 | 1008.4 |
| 20260509093321 | 11 | 87 | 0.0 | 0.0 | 0.00 | 0.00 | 0.00 | 74 | 1008.3 |
| 20260509092820 | 10 | 87 | 0.0 | 0.0 | 0.00 | 0.00 | 0.00 | 77 | 1008.5 |
| 20260509092317 | 11 | 87 | 0.0 | 0.0 | 0.00 | 0.00 | 0.00 | 78 | 1008.3 |
| 20260509091815 | 11 | 87 | 0.0 | 0.0 | 0.00 | 0.00 | 0.00 | 75 | 1008.2 |
| 20260509091311 | 11 | 87 | 0.0 | 0.0 | 0.00 | 0.00 | 0.00 | 74 | 1008.5 |
| 20260509090809 | 11 | 87 | 0.0 | 0.0 | 0.00 | 0.00 | 0.00 | 76 | 1008.3 |
| 20260509090306 | 11 | 87 | 0.0 | 0.0 | 0.00 | 0.00 | 0.00 | 76 | 1008.3 |
| 20260509085803 | 11 | 87 | 0.0 | 0.0 | 0.00 | 0.00 | 0.00 | 76 | 1008.4 |
| 20260509085301 | 11 | 87 | 0.0 | 0.0 | 0.00 | 0.00 | 0.00 | 77 | 1008.4 |
| 20260509084757 | 11 | 87 | 0.0 | 0.0 | 0.00 | 0.00 | 0.00 | 75 | 1008.3 |
| 20260509084254 | 11 | 87 | 0.0 | 0.0 | 0.00 | 0.00 | 0.00 | 75 | 1008.5 |
| 20260509083752 | 11 | 87 | 0.0 | 0.0 | 0.00 | 0.00 | 0.00 | 77 | 1008.4 |
| 20260509083248 | 11 | 87 | 0.0 | 0.0 | 0.00 | 0.00 | 0.00 | 76 | 1008.4 |
| 20260509082744 | 11 | 87 | 0.0 | 0.0 | 0.00 | 0.00 | 0.00 | 75 | 1008.4 |
| 20260509082241 | 11 | 87 | 0.0 | 0.0 | 0.00 | 0.00 | 0.00 | 76 | 1008.3 |
| 20260509081738 | 11 | 87 | 0.0 | 0.0 | 0.00 | 0.00 | 0.00 | 76 | 1008.4 |
| 20260509081236 | 11 | 87 | 0.0 | 0.0 | 0.00 | 0.00 | 0.00 | 75 | 1008.4 |
| 20260509080734 | 11 | 87 | 0.0 | 0.0 | 0.00 | 0.00 | 0.00 | 78 | 1008.6 |
| 20260509080231 | 11 | 87 | 0.0 | 0.0 | 0.00 | 0.00 | 0.00 | 76 | 1008.9 |
| 20260509075729 | 10 | 87 | 0.0 | 0.0 | 0.00 | 0.00 | 0.00 | 77 | 1008.7 |
| 20260509075227 | 11 | 87 | 0.0 | 0.0 | 0.00 | 0.00 | 0.00 | 76 | 1008.7 |
| 20260509074723 | 11 | 87 | 0.0 | 0.0 | 0.00 | 0.00 | 0.00 | 75 | 1008.7 |
| 20260509074221 | 11 | 87 | 0.0 | 0.0 | 0.00 | 0.00 | 0.00 | 75 | 1008.7 |
| 20260509073717 | 10 | 87 | 0.0 | 0.0 | 0.00 | 0.00 | 0.00 | 75 | 1008.7 |
| 20260509073213 | 10 | 87 | 0.0 | 0.0 | 0.00 | 0.00 | 0.00 | 75 | 1008.9 |
| 20260509072710 | 10 | 87 | 0.0 | 0.0 | 0.00 | 0.00 | 0.00 | 76 | 1008.9 |
| 20260509072207 | 10 | 87 | 0.0 | 0.0 | 0.00 | 0.00 | 0.00 | 76 | 1008.7 |
| 20260509071703 | 10 | 87 | 0.0 | 0.0 | 0.00 | 0.00 | 0.00 | 76 | 1008.7 |
| 20260509071201 | 10 | 87 | 0.0 | 0.0 | 0.00 | 0.00 | 0.00 | 76 | 1008.8 |
| 20260509070658 | 10 | 87 | 0.0 | 0.0 | 0.00 | 0.00 | 0.00 | 76 | 1008.9 |
| 20260509070154 | 10 | 87 | 0.0 | 0.0 | 0.00 | 0.00 | 0.00 | 76 | 1008.9 |
| 20260509065650 | 10 | 87 | 0.0 | 0.0 | 0.00 | 0.00 | 0.00 | 77 | 1009.0 |
| 20260509065146 | 10 | 87 | 0.0 | 0.0 | 0.00 | 0.00 | 0.00 | 78 | 1008.9 |
| 20260509064643 | 10 | 87 | 0.0 | 0.0 | 0.00 | 0.00 | 0.00 | 77 | 1009.0 |
| 20260509064141 | 10 | 87 | 0.0 | 0.0 | 0.00 | 0.00 | 0.00 | 78 | 1008.9 |
| 20260509063638 | 10 | 87 | 0.0 | 0.0 | 0.00 | 0.00 | 0.00 | 78 | 1009.0 |
| 20260509063134 | 10 | 87 | 0.0 | 0.0 | 0.00 | 0.00 | 0.00 | 78 | 1009.1 |
| 20260509062632 | 10 | 87 | 0.0 | 0.0 | 0.00 | 0.00 | 0.00 | 79 | 1009.2 |
| 20260509062128 | 10 | 87 | 0.0 | 0.0 | 0.00 | 0.00 | 0.00 | 78 | 1009.3 |
| 20260509061625 | 10 | 87 | 0.0 | 0.0 | 0.00 | 0.00 | 0.00 | 78 | 1009.3 |
| 20260509061123 | 10 | 87 | 0.0 | 0.0 | 0.00 | 0.00 | 0.00 | 78 | 1009.3 |
| 20260509060620 | 10 | 87 | 0.0 | 0.0 | 0.00 | 0.00 | 0.00 | 77 | 1009.1 |
| 20260509060110 | 10 | 87 | 0.0 | 0.0 | 0.00 | 0.00 | 0.00 | 76 | 1009.2 |
| 20260509055606 | 10 | 87 | 0.0 | 0.0 | 0.00 | 0.00 | 0.00 | 77 | 1009.3 |
| 20260509055102 | 10 | 87 | 0.0 | 0.0 | 0.00 | 0.00 | 0.00 | 76 | 1009.5 |
| 20260509054559 | 10 | 87 | 0.0 | 0.0 | 0.00 | 0.00 | 0.00 | 74 | 1009.4 |
| 20260509054057 | 10 | 87 | 0.0 | 0.0 | 0.00 | 0.00 | 0.00 | 75 | 1009.5 |
| 20260509053555 | 10 | 87 | 0.0 | 0.0 | 0.00 | 0.00 | 0.00 | 75 | 1009.4 |
| 20260509053052 | 10 | 87 | 0.0 | 0.0 | 0.00 | 0.00 | 0.00 | 75 | 1009.3 |
| 20260509052550 | 10 | 87 | 0.0 | 0.0 | 0.00 | 0.00 | 0.00 | 75 | 1009.3 |
| 20260509052047 | 10 | 87 | 0.0 | 0.0 | 0.00 | 0.00 | 0.00 | 74 | 1009.5 |
| 20260509051545 | 10 | 87 | 0.0 | 0.0 | 0.00 | 0.00 | 0.00 | 74 | 1009.6 |
| 20260509051042 | 10 | 87 | 0.0 | 0.0 | 0.00 | 0.00 | 0.00 | 74 | 1009.4 |
| 20260509050539 | 10 | 87 | 0.0 | 0.0 | 0.00 | 0.00 | 0.00 | 74 | 1009.6 |
| 20260509050035 | 10 | 87 | 0.0 | 0.0 | 0.00 | 0.00 | 0.00 | 74 | 1009.7 |
| 20260509045533 | 10 | 87 | 0.0 | 0.0 | 0.00 | 0.00 | 0.00 | 77 | 1009.5 |
| 20260509045029 | 10 | 87 | 0.0 | 0.0 | 0.00 | 0.00 | 0.00 | 74 | 1009.3 |
| 20260509044527 | 10 | 87 | 0.0 | 0.0 | 0.00 | 0.00 | 0.00 | 75 | 1009.5 |
| 20260509044024 | 10 | 87 | 0.0 | 0.0 | 0.00 | 0.00 | 0.00 | 74 | 1009.3 |
| 20260509043520 | 10 | 87 | 0.0 | 0.0 | 0.00 | 0.00 | 0.00 | 73 | 1009.2 |
| 20260509043016 | 10 | 87 | 0.0 | 0.0 | 0.00 | 0.00 | 0.00 | 74 | 1009.3 |
| 20260509042512 | 10 | 87 | 0.0 | 0.0 | 0.00 | 0.00 | 0.00 | 73 | 1009.4 |
| 20260509042009 | 10 | 87 | 0.0 | 0.0 | 0.00 | 0.00 | 0.00 | 73 | 1009.5 |
| 20260509041505 | 10 | 87 | 0.0 | 0.0 | 0.00 | 0.00 | 0.00 | 73 | 1009.5 |
| 20260509041003 | 10 | 87 | 0.0 | 0.0 | 0.00 | 0.00 | 0.00 | 73 | 1009.3 |
| 20260509040501 | 10 | 87 | 0.0 | 0.0 | 0.00 | 0.00 | 0.00 | 72 | 1009.5 |
| 20260509035957 | 11 | 87 | 0.0 | 0.0 | 0.00 | 0.00 | 0.00 | 71 | 1009.4 |
| 20260509035454 | 11 | 87 | 0.0 | 0.0 | 0.00 | 0.00 | 0.00 | 73 | 1009.6 |
| 20260509034951 | 11 | 87 | 0.0 | 0.0 | 0.00 | 0.00 | 0.00 | 72 | 1009.4 |
| 20260509034449 | 11 | 87 | 0.0 | 0.0 | 0.00 | 0.00 | 0.00 | 71 | 1009.6 |
| 20260509033946 | 11 | 87 | 0.0 | 0.0 | 0.00 | 0.00 | 0.00 | 70 | 1009.4 |
| 20260509033443 | 11 | 87 | 0.0 | 0.0 | 0.00 | 0.00 | 0.00 | 72 | 1009.5 |
| 20260509032939 | 11 | 87 | 0.0 | 0.0 | 0.00 | 0.00 | 0.00 | 70 | 1009.6 |
| 20260509032437 | 11 | 87 | 0.0 | 0.0 | 0.00 | 0.00 | 0.00 | 72 | 1009.8 |
| 20260509031934 | 11 | 87 | 0.0 | 0.0 | 0.00 | 0.00 | 0.00 | 70 | 1009.6 |
| 20260509031432 | 11 | 87 | 0.0 | 0.0 | 0.00 | 0.00 | 0.00 | 70 | 1009.7 |
| 20260509030929 | 11 | 87 | 0.0 | 0.0 | 0.00 | 0.00 | 0.00 | 69 | 1009.6 |
| 20260509030427 | 11 | 87 | 0.0 | 0.0 | 0.00 | 0.00 | 0.00 | 68 | 1009.6 |
| 20260509025924 | 11 | 87 | 0.0 | 0.0 | 0.00 | 0.00 | 0.00 | 70 | 1009.7 |
| 20260509025419 | 12 | 86 | 0.0 | 0.0 | 0.00 | 0.00 | 0.00 | 69 | 1009.5 |
| 20260509024914 | 12 | 87 | 0.0 | 0.0 | 0.00 | 0.00 | 0.00 | 70 | 1009.8 |
| 20260509024411 | 12 | 87 | 0.0 | 0.0 | 0.00 | 0.00 | 0.00 | 67 | 1009.6 |
| 20260509023908 | 12 | 87 | 0.0 | 0.0 | 0.00 | 0.00 | 0.00 | 70 | 1009.8 |
| 20260509023406 | 12 | 86 | 0.0 | 0.0 | 0.00 | 0.00 | 0.00 | 68 | 1009.6 |
| 20260509022902 | 12 | 87 | 0.0 | 0.0 | 0.00 | 0.00 | 0.00 | 68 | 1009.5 |
| 20260509022359 | 12 | 87 | 0.0 | 0.0 | 0.00 | 0.00 | 0.00 | 66 | 1010.0 |
| 20260509021856 | 12 | 86 | 0.0 | 0.0 | 0.00 | 0.00 | 0.00 | 69 | 1009.7 |
| 20260509021353 | 12 | 86 | 0.0 | 0.0 | 0.00 | 0.00 | 0.00 | 70 | 1009.7 |
| 20260509020851 | 12 | 87 | 0.0 | 0.0 | 0.00 | 0.00 | 0.00 | 71 | 1010.0 |
| 20260509020349 | 12 | 87 | 0.0 | 0.0 | 0.00 | 0.00 | 0.00 | 70 | 1010.0 |
| 20260509015846 | 12 | 86 | 0.0 | 0.0 | 0.00 | 0.00 | 0.00 | 69 | 1009.6 |
| 20260509015344 | 11 | 87 | 0.0 | 0.0 | 0.00 | 0.00 | 0.00 | 68 | 1009.6 |
| 20260509014840 | 11 | 91 | 0.0 | 0.0 | 0.00 | 0.00 | 0.00 | 69 | 1009.8 |
| 20260509014337 | 11 | 111 | 1.6 | 1.6 | 0.00 | 0.00 | 0.00 | 71 | 1009.8 |
| 20260509013834 | 11 | 100 | 0.0 | 0.0 | 0.00 | 0.00 | 0.00 | 70 | 1010.0 |
| 20260509013330 | 11 | 100 | 0.0 | 0.0 | 0.00 | 0.00 | 0.00 | 69 | 1009.7 |
| 20260509012826 | 12 | 100 | 0.0 | 0.0 | 0.00 | 0.00 | 0.00 | 68 | 1010.0 |
| 20260509012323 | 12 | 101 | 0.0 | 0.0 | 0.00 | 0.00 | 0.00 | 68 | 1009.8 |
| 20260509011821 | 12 | 101 | 1.6 | 1.6 | 0.00 | 0.00 | 0.00 | 67 | 1009.8 |
| 20260509011318 | 12 | 101 | 1.6 | 1.6 | 0.00 | 0.00 | 0.00 | 68 | 1009.4 |
| 20260509010816 | 12 | 101 | 0.0 | 0.0 | 0.00 | 0.00 | 0.00 | 68 | 1009.4 |
| 20260509010312 | 12 | 101 | 0.0 | 0.0 | 0.00 | 0.00 | 0.00 | 68 | 1009.6 |
| 20260509005810 | 12 | 101 | 0.0 | 0.0 | 0.00 | 0.00 | 0.00 | 67 | 1009.5 |
| 20260509005308 | 13 | 101 | 0.0 | 0.0 | 0.00 | 0.00 | 0.00 | 64 | 1009.4 |
| 20260509004802 | 13 | 101 | 0.0 | 0.0 | 0.00 | 0.00 | 0.00 | 65 | 1009.6 |
| 20260509004259 | 13 | 101 | 0.0 | 0.0 | 0.00 | 0.00 | 0.00 | 63 | 1009.5 |
| 20260509003757 | 13 | 101 | 0.0 | 0.0 | 0.00 | 0.00 | 0.00 | 64 | 1009.4 |
| 20260509003254 | 13 | 101 | 0.0 | 0.0 | 0.00 | 0.00 | 0.00 | 64 | 1009.5 |
| 20260509002751 | 14 | 101 | 0.0 | 0.0 | 0.00 | 0.00 | 0.00 | 62 | 1009.5 |
| 20260509002249 | 14 | 101 | 0.0 | 0.0 | 0.00 | 0.00 | 0.00 | 61 | 1009.7 |
| 20260509001746 | 14 | 101 | 0.0 | 0.0 | 0.00 | 0.00 | 0.00 | 61 | 1009.5 |
| 20260509001242 | 14 | 101 | 0.0 | 0.0 | 0.00 | 0.00 | 0.00 | 61 | 1009.4 |
| 20260509000740 | 15 | 101 | 0.0 | 0.0 | 0.00 | 0.00 | 0.00 | 61 | 1009.4 |
| 20260509000237 | 15 | 101 | 0.0 | 0.0 | 0.00 | 0.00 | 0.00 | 58 | 1009.2 |
| 20260508235734 | 15 | 101 | 0.0 | 0.0 | 0.00 | 0.00 | 0.00 | 57 | 1009.0 |
| 20260508235230 | 15 | 101 | 1.6 | 1.6 | 0.00 | 0.00 | 0.00 | 56 | 1009.1 |
| 20260508234727 | 15 | 101 | 0.0 | 1.6 | 0.00 | 0.00 | 0.00 | 55 | 1009.0 |
| 20260508234223 | 15 | 101 | 1.6 | 1.6 | 0.00 | 0.00 | 0.00 | 55 | 1009.0 |
| 20260508233718 | 16 | 101 | 0.0 | 0.0 | 0.00 | 0.00 | 0.00 | 53 | 1009.1 |
| 20260508233215 | 16 | 101 | 0.0 | 0.0 | 0.00 | 0.00 | 0.00 | 53 | 1009.1 |
| 20260508232712 | 16 | 100 | 0.0 | 0.0 | 0.00 | 0.00 | 0.00 | 50 | 1008.8 |
| 20260508232209 | 16 | 100 | 0.0 | 0.0 | 0.00 | 0.00 | 0.00 | 43 | 1009.0 |
| 20260508231707 | 17 | 100 | 0.0 | 0.0 | 0.00 | 0.00 | 0.00 | 50 | 1008.7 |
| 20260508231203 | 17 | 100 | 0.0 | 0.0 | 0.00 | 0.00 | 0.00 | 47 | 1008.8 |
| 20260508230700 | 17 | 157 | 1.6 | 1.6 | 0.00 | 0.00 | 0.00 | 46 | 1008.9 |
| 20260508230156 | 18 | 157 | 0.0 | 0.0 | 0.00 | 0.00 | 0.00 | 42 | 1008.8 |
| 20260508225655 | 18 | 216 | 1.6 | 1.6 | 0.00 | 0.00 | 0.00 | 37 | 1008.9 |
| 20260508225150 | 18 | 132 | 0.0 | 0.0 | 0.00 | 0.00 | 0.00 | 41 | 1008.8 |
| 20260508224648 | 18 | 137 | 0.0 | 0.0 | 0.00 | 0.00 | 0.00 | 42 | 1009.0 |
| 20260508224146 | 18 | 125 | 1.6 | 1.6 | 0.00 | 0.00 | 0.00 | 37 | 1008.8 |
| 20260508223643 | 18 | 179 | 0.0 | 0.0 | 0.00 | 0.00 | 0.00 | 37 | 1009.1 |
| 20260508223140 | 18 | 153 | 0.0 | 0.0 | 0.00 | 0.00 | 0.00 | 38 | 1009.0 |
| 20260508222638 | 19 | 358 | 0.0 | 0.0 | 0.00 | 0.00 | 0.00 | 38 | 1008.9 |
| 20260508222135 | 20 | 183 | 1.6 | 1.6 | 0.00 | 0.00 | 0.00 | 35 | 1008.9 |
| 20260508221631 | 19 | 191 | 0.0 | 1.6 | 0.00 | 0.00 | 0.00 | 36 | 1009.1 |
| 20260508221126 | 18 | 209 | 1.6 | 3.2 | 0.00 | 0.00 | 0.00 | 37 | 1009.0 |
| 20260508220623 | 18 | 199 | 1.6 | 1.6 | 0.00 | 0.00 | 0.00 | 37 | 1008.9 |
| 20260508220120 | 19 | 236 | 1.6 | 1.6 | 0.00 | 0.00 | 0.00 | 35 | 1009.0 |
| 20260508215617 | 19 | 358 | 1.6 | 1.6 | 0.00 | 0.00 | 0.00 | 34 | 1008.8 |
| 20260508215113 | 19 | 125 | 0.0 | 0.0 | 0.00 | 0.00 | 0.00 | 37 | 1009.0 |
| 20260508214611 | 20 | 70 | 1.6 | 1.6 | 0.00 | 0.00 | 0.00 | 35 | 1008.7 |
| 20260508214108 | 19 | 144 | 0.0 | 0.0 | 0.00 | 0.00 | 0.00 | 34 | 1008.9 |
| 20260508213604 | 19 | 58 | 0.0 | 0.0 | 0.00 | 0.00 | 0.00 | 34 | 1009.0 |
| 20260508213100 | 19 | 263 | 1.6 | 1.6 | 0.00 | 0.00 | 0.00 | 34 | 1009.1 |
| 20260508212557 | 20 | 91 | 3.2 | 3.2 | 0.00 | 0.00 | 0.00 | 33 | 1009.0 |
| 20260508212053 | 20 | 285 | 3.2 | 4.8 | 0.00 | 0.00 | 0.00 | 35 | 1009.0 |
| 20260508211549 | 20 | 67 | 1.6 | 1.6 | 0.00 | 0.00 | 0.00 | 35 | 1009.1 |
| 20260508211045 | 20 | 195 | 1.6 | 1.6 | 0.00 | 0.00 | 0.00 | 35 | 1009.1 |
| 20260508210542 | 20 | 22 | 0.0 | 1.6 | 0.00 | 0.00 | 0.00 | 33 | 1009.3 |
| 20260508210040 | 20 | 342 | 1.6 | 1.6 | 0.00 | 0.00 | 0.00 | 31 | 1009.3 |
| 20260508205536 | 20 | 142 | 1.6 | 1.6 | 0.00 | 0.00 | 0.00 | 36 | 1009.2 |
| 20260508205033 | 20 | 11 | 1.6 | 1.6 | 0.00 | 0.00 | 0.00 | 34 | 1009.2 |
| 20260508204530 | 20 | 174 | 0.0 | 1.6 | 0.00 | 0.00 | 0.00 | 36 | 1009.5 |
| 20260508204025 | 20 | 8 | 0.0 | 0.0 | 0.00 | 0.00 | 0.00 | 33 | 1009.4 |
| 20260508203521 | 19 | 142 | 0.0 | 0.0 | 0.00 | 0.00 | 0.00 | 34 | 1009.5 |
| 20260508203018 | 19 | 35 | 1.6 | 1.6 | 0.00 | 0.00 | 0.00 | 34 | 1009.4 |
| 20260508202515 | 19 | 138 | 1.6 | 3.2 | 0.00 | 0.00 | 0.00 | 36 | 1009.6 |
| 20260508202012 | 19 | 51 | 1.6 | 1.6 | 0.00 | 0.00 | 0.00 | 33 | 1009.6 |